N8CTB Weather Reports


time (UTC)temp
C
wind
direction
speed
KPH
gust
KPH
rain 1hr
cm
rain 24hr
cm
rain mn
cm
humidity
%
barometer
mb
20260509053506 4 215 0.0 3.2 0.00 0.00 0.00 78 1005.6
20260509053021 4 212 0.0 4.8 0.00 0.00 0.00 78 1005.6
20260509052506 4 207 0.0 4.8 0.00 0.00 0.00 77 1005.6
20260509052004 4 205 0.0 4.8 0.00 0.00 0.00 76 1005.7
20260509051516 4 185 0.0 4.8 0.00 0.00 0.00 76 1005.7
20260509051008 3 207 0.0 3.2 0.00 0.00 0.00 76 1005.8
20260509050511 3 183 0.0 3.2 0.00 0.00 0.00 77 1005.8
20260509050034 3 183 0.0 1.6 0.00 0.00 0.00 78 1005.8
20260509045507 3 247 0.0 0.0 0.00 0.00 0.00 78 1005.9
20260509045009 3 247 0.0 0.0 0.00 0.00 0.00 77 1005.9
20260509044522 3 247 0.0 0.0 0.00 0.00 0.00 79 1006.0
20260509044006 3 247 0.0 0.0 0.00 0.00 0.00 79 1006.1
20260509043507 3 247 0.0 0.0 0.00 0.00 0.00 80 1006.1
20260509043035 3 247 0.0 0.0 0.00 0.00 0.00 82 1006.0
20260509042504 3 247 0.0 0.0 0.00 0.00 0.00 81 1006.0
20260509042006 3 247 0.0 0.0 0.00 0.00 0.00 81 1006.0
20260509041512 3 247 0.0 0.0 0.00 0.00 0.00 80 1006.1
20260509041005 3 247 0.0 0.0 0.00 0.00 0.00 79 1006.1
20260509040507 4 247 0.0 0.0 0.00 0.00 0.00 80 1006.2
20260509040018 4 247 0.0 0.0 0.00 0.00 0.00 79 1006.2
20260509035506 4 247 0.0 0.0 0.00 0.00 0.00 79 1006.3
20260509035004 4 247 0.0 0.0 0.00 0.00 0.00 77 1006.3
20260509034520 4 247 0.0 0.0 0.00 0.00 0.00 76 1006.4
20260509034008 5 247 0.0 0.0 0.00 0.00 0.00 76 1006.4
20260509033512 5 247 0.0 0.0 0.00 0.00 0.00 78 1006.4
20260509033019 5 247 0.0 0.0 0.00 0.00 0.00 78 1006.5
20260509032518 5 247 0.0 3.2 0.00 0.00 0.00 77 1006.5
20260509032013 5 247 0.0 3.2 0.00 0.00 0.00 78 1006.5
20260509031532 5 247 0.0 3.2 0.00 0.00 0.00 77 1006.7
20260509031009 5 247 0.0 0.0 0.00 0.00 0.00 76 1006.7
20260509030505 5 247 0.0 0.0 0.00 0.00 0.00 74 1006.8
20260509030010 5 247 0.0 0.0 0.00 0.00 0.00 71 1006.8
20260509025503 5 247 0.0 0.0 0.00 0.00 0.00 70 1006.9
20260509025003 5 247 0.0 0.0 0.00 0.00 0.00 71 1006.9
20260509024503 6 247 0.0 0.0 0.00 0.00 0.00 71 1007.0
20260509024002 6 247 0.0 0.0 0.00 0.00 0.00 71 1007.1
20260509023503 6 247 0.0 0.0 0.00 0.00 0.00 68 1007.0
20260509023004 6 247 0.0 3.2 0.00 0.00 0.00 66 1007.1
20260509022502 6 247 0.0 3.2 0.00 0.00 0.00 68 1007.0
20260509022002 7 247 0.0 0.0 0.00 0.00 0.00 67 1007.0
20260509021504 7 247 0.0 0.0 0.00 0.00 0.00 63 1007.0
20260509021004 7 247 0.0 0.0 0.00 0.00 0.00 63 1007.0
20260509020503 7 247 0.0 0.0 0.00 0.00 0.00 65 1007.1
20260509020003 7 247 0.0 0.0 0.00 0.00 0.00 65 1007.0
20260509015503 7 247 0.0 0.0 0.00 0.00 0.00 64 1006.9
20260509015001 7 247 0.0 0.0 0.00 0.00 0.00 64 1006.9
20260509014504 7 247 0.0 0.0 0.00 0.00 0.00 61 1006.9
20260509014003 8 247 0.0 0.0 0.00 0.00 0.00 63 1006.9
20260509013503 8 247 0.0 0.0 0.00 0.00 0.00 60 1006.8
20260509013004 9 247 0.0 0.0 0.00 0.00 0.00 56 1006.8
20260509012503 10 247 0.0 0.0 0.00 0.00 0.00 58 1006.8
20260509012003 10 247 0.0 0.0 0.00 0.00 0.00 52 1006.8
20260509011508 10 247 0.0 0.0 0.00 0.00 0.00 46 1006.8
20260509011002 10 247 0.0 0.0 0.00 0.00 0.00 49 1006.9
20260509010502 11 247 0.0 0.0 0.00 0.00 0.00 50 1006.9
20260509010014 11 247 0.0 0.0 0.00 0.00 0.00 45 1006.9
20260509005505 12 247 0.0 0.0 0.00 0.00 0.00 45 1006.9
20260509005004 12 247 0.0 0.0 0.00 0.00 0.00 47 1006.9
20260509004506 13 247 0.0 0.0 0.00 0.00 0.00 46 1007.0
20260509004003 13 247 0.0 4.8 0.00 0.00 0.00 41 1007.0
20260509003502 13 247 0.0 4.8 0.00 0.00 0.00 44 1007.0
20260509003005 13 259 0.0 3.2 0.00 0.00 0.00 38 1007.1
20260509002503 14 261 0.0 4.8 0.00 0.00 0.00 34 1007.0
20260509002005 14 241 0.0 8.0 0.00 0.00 0.00 35 1007.0
20260509001505 15 211 1.6 8.0 0.00 0.00 0.00 32 1007.1
20260509001002 15 213 3.2 8.0 0.00 0.00 0.00 31 1007.1
20260509000503 15 236 1.6 6.4 0.00 0.00 0.00 30 1007.2
20260509000006 15 223 3.2 6.4 0.00 0.00 0.00 31 1007.2
20260508235503 15 225 1.6 6.4 0.00 0.00 0.00 30 1007.3
20260508235004 15 225 1.6 9.7 0.00 0.00 0.00 29 1007.4
20260508234513 15 209 6.4 12.9 0.00 0.00 0.00 32 1007.4
20260508234007 15 242 4.8 14.5 0.00 0.00 0.00 31 1007.4
20260508233503 16 219 6.4 16.1 0.00 0.00 0.00 29 1007.4
20260508233013 16 208 8.0 16.1 0.00 0.00 0.00 29 1007.5
20260508232508 16 220 0.0 11.3 0.00 0.00 0.00 27 1007.5
20260508232007 16 287 3.2 12.9 0.00 0.00 0.00 27 1007.4
20260508231504 16 218 4.8 12.9 0.00 0.00 0.00 29 1007.4
20260508231007 17 262 4.8 12.9 0.00 0.00 0.00 29 1007.4
20260508230505 16 269 4.8 14.5 0.00 0.00 0.00 28 1007.4
20260508230004 17 229 8.0 14.5 0.00 0.00 0.00 27 1007.3
20260508225503 16 314 6.4 16.1 0.00 0.00 0.00 28 1007.2
20260508225004 16 219 6.4 16.1 0.00 0.00 0.00 28 1007.3
20260508224522 17 242 6.4 12.9 0.00 0.00 0.00 32 1007.4
20260508224006 17 244 6.4 16.1 0.00 0.00 0.00 30 1007.4
20260508223504 17 239 4.8 16.1 0.00 0.00 0.00 27 1007.3
20260508223005 17 221 8.0 14.5 0.00 0.00 0.00 29 1007.3
20260508222502 17 224 4.8 14.5 0.00 0.00 0.00 30 1007.4
20260508222006 17 236 8.0 22.5 0.00 0.00 0.00 27 1007.3
20260508221518 17 293 6.4 22.5 0.00 0.00 0.00 28 1007.3
20260508221009 17 195 4.8 16.1 0.00 0.00 0.00 30 1007.3
20260508220503 16 202 6.4 25.7 0.00 0.00 0.00 28 1007.3
20260508220004 17 198 12.9 25.7 0.00 0.00 0.00 27 1007.3
20260508215503 17 283 4.8 19.3 0.00 0.00 0.00 29 1007.4
20260508215002 17 325 4.8 19.3 0.00 0.00 0.00 28 1007.4
20260508214508 17 182 8.0 19.3 0.00 0.00 0.00 28 1007.3
20260508214005 17 217 11.3 19.3 0.00 0.00 0.00 27 1007.4
20260508213503 17 267 6.4 12.9 0.00 0.00 0.00 27 1007.4
20260508213013 17 207 1.6 16.1 0.00 0.00 0.00 27 1007.5
20260508212504 17 267 8.0 16.1 0.00 0.00 0.00 29 1007.4
20260508212008 17 32 4.8 16.1 0.00 0.00 0.00 25 1007.5
20260508211516 17 208 3.2 16.1 0.00 0.00 0.00 26 1007.5
20260508211006 17 91 4.8 16.1 0.00 0.00 0.00 32 1007.5
20260508210506 17 79 3.2 17.7 0.00 0.00 0.00 29 1007.4
20260508210007 17 251 11.3 19.3 0.00 0.00 0.00 28 1007.5
20260508205505 17 196 8.0 24.1 0.00 0.00 0.00 30 1007.6
20260508205012 17 259 12.9 24.1 0.00 0.00 0.00 29 1007.6
20260508204523 17 254 3.2 12.9 0.00 0.00 0.00 26 1007.6
20260508204003 17 275 4.8 16.1 0.00 0.00 0.00 26 1007.7
20260508203505 17 5 6.4 16.1 0.00 0.00 0.00 29 1007.7
20260508203012 17 167 9.7 27.4 0.00 0.00 0.00 31 1007.7
20260508202504 17 230 12.9 27.4 0.00 0.00 0.00 26 1007.9
20260508202006 17 251 6.4 19.3 0.00 0.00 0.00 29 1007.8
20260508201513 17 221 4.8 17.7 0.00 0.00 0.00 26 1007.9
20260508201007 17 250 8.0 19.3 0.00 0.00 0.00 27 1008.0
20260508200504 17 153 8.0 25.7 0.00 0.00 0.00 28 1008.1
20260508200028 17 248 17.7 25.7 0.00 0.00 0.00 27 1008.1
20260508195509 17 295 8.0 17.7 0.00 0.00 0.00 26 1008.2
20260508195004 17 180 6.4 22.5 0.00 0.00 0.00 29 1008.2
20260508194515 17 247 4.8 22.5 0.00 0.00 0.00 31 1008.3
20260508194013 17 205 4.8 17.7 0.00 0.00 0.00 28 1008.2
20260508193507 17 218 11.3 16.1 0.00 0.00 0.00 31 1008.3
20260508193007 17 292 4.8 14.5 0.00 0.00 0.00 25 1008.4
20260508192508 17 246 4.8 14.5 0.00 0.00 0.00 26 1008.4
20260508192007 17 177 3.2 11.3 0.00 0.00 0.00 31 1008.5
20260508191508 17 211 4.8 11.3 0.00 0.00 0.00 30 1008.5
20260508191004 17 306 3.2 12.9 0.00 0.00 0.00 35 1008.5
20260508190504 16 246 3.2 14.5 0.00 0.00 0.00 32 1008.7
20260508190018 16 195 6.4 22.5 0.00 0.00 0.00 27 1008.6
20260508185504 16 216 14.5 24.1 0.00 0.00 0.00 31 1008.8
20260508185007 16 242 14.5 22.5 0.00 0.00 0.00 34 1008.9
20260508184526 16 262 6.4 14.5 0.00 0.00 0.00 33 1008.9
20260508184006 16 235 6.4 14.5 0.00 0.00 0.00 34 1009.0
20260508183507 16 257 8.0 16.1 0.00 0.00 0.00 31 1008.9
20260508183022 16 243 1.6 16.1 0.00 0.00 0.00 31 1009.0
20260508182511 16 208 6.4 16.1 0.00 0.00 0.00 32 1009.1
20260508182003 16 230 11.3 16.1 0.00 0.00 0.00 30 1009.2
20260508181518 16 269 6.4 14.5 0.00 0.00 0.00 32 1009.2
20260508181007 16 278 3.2 20.9 0.00 0.00 0.00 29 1009.2
20260508180505 16 275 14.5 20.9 0.00 0.00 0.00 30 1009.4
20260508180007 16 304 4.8 12.9 0.00 0.00 0.00 31 1009.3
20260508175502 16 221 1.6 19.3 0.00 0.00 0.00 34 1009.4
20260508175006 16 166 9.7 19.3 0.00 0.00 0.00 30 1009.6
20260508174506 16 249 11.3 19.3 0.00 0.00 0.00 33 1009.7
20260508174004 15 236 6.4 20.9 0.00 0.00 0.00 33 1009.7
20260508173503 15 197 11.3 20.9 0.00 0.00 0.00 35 1009.8
20260508173003 15 98 3.2 20.9 0.00 0.00 0.00 35 1010.0
20260508172505 15 221 12.9 20.9 0.00 0.00 0.00 36 1010.1
20260508172003 15 262 11.3 19.3 0.00 0.00 0.00 36 1010.1
20260508171511 15 211 6.4 17.7 0.00 0.00 0.00 34 1010.1
20260508171005 15 230 4.8 20.9 0.00 0.00 0.00 39 1010.3
20260508170502 15 241 11.3 20.9 0.00 0.00 0.00 37 1010.4
20260508170005 15 190 8.0 17.7 0.00 0.00 0.00 44 1010.5
20260508165503 15 242 6.4 17.7 0.00 0.00 0.00 40 1010.6
20260508165002 15 233 6.4 16.1 0.00 0.00 0.00 35 1010.7
20260508164505 15 81 3.2 11.3 0.00 0.00 0.00 37 1010.7
20260508164004 15 273 1.6 8.0 0.00 0.00 0.00 38 1010.8
20260508163504 15 219 4.8 11.3 0.00 0.00 0.00 38 1010.9
20260508163004 14 241 3.2 14.5 0.00 0.00 0.00 38 1011.0
20260508162503 14 257 6.4 14.5 0.00 0.00 0.00 40 1010.9
20260508162003 14 48 3.2 16.1 0.00 0.00 0.00 39 1010.9
20260508161509 14 283 11.3 17.7 0.00 0.00 0.00 40 1011.0
20260508161004 14 194 9.7 17.7 0.00 0.00 0.00 41 1011.0
20260508160504 14 169 1.6 16.1 0.00 0.00 0.00 44 1011.0
20260508160009 13 199 3.2 24.1 0.00 0.00 0.00 44 1011.1
20260508155505 13 207 11.3 24.1 0.00 0.00 0.00 41 1011.1
20260508155003 13 237 6.4 14.5 0.00 0.00 0.00 40 1011.0
20260508154511 13 124 1.6 16.1 0.00 0.00 0.00 39 1011.1
20260508154005 13 268 6.4 16.1 0.00 0.00 0.00 47 1011.1
20260508153506 13 200 1.6 17.7 0.00 0.00 0.00 44 1011.0
20260508153008 13 219 4.8 17.7 0.00 0.00 0.00 45 1011.1
20260508152504 13 228 4.8 11.3 0.00 0.00 0.00 45 1011.1
20260508152002 13 271 4.8 16.1 0.00 0.00 0.00 46 1011.1
20260508151506 13 108 1.6 16.1 0.00 0.00 0.00 47 1011.1
20260508151006 13 209 4.8 12.9 0.00 0.00 0.00 52 1011.2
20260508150504 13 160 1.6 12.9 0.00 0.00 0.00 46 1011.2
20260508150017 12 177 4.8 14.5 0.00 0.00 0.00 47 1011.3
20260508145504 12 213 11.3 17.7 0.00 0.00 0.00 49 1011.3
20260508145005 12 233 8.0 17.7 0.00 0.00 0.00 50 1011.2
20260508144526 12 201 6.4 14.5 0.00 0.00 0.00 49 1011.3
20260508144004 12 217 6.4 14.5 0.00 0.00 0.00 58 1011.4
20260508143504 12 227 4.8 14.5 0.00 0.00 0.00 57 1011.4
20260508143025 12 352 0.0 11.3 0.00 0.00 0.00 54 1011.4
20260508142502 12 210 4.8 11.3 0.00 0.00 0.00 56 1011.5
20260508142004 12 183 6.4 9.7 0.00 0.00 0.00 61 1011.6
20260508141522 11 284 3.2 9.7 0.00 0.00 0.00 60 1011.6
20260508141011 11 158 1.6 9.7 0.00 0.00 0.00 66 1011.6
20260508140504 11 148 3.2 9.7 0.00 0.00 0.00 68 1011.5
20260508140007 11 228 3.2 9.7 0.00 0.00 0.00 64 1011.6
20260508135503 11 215 4.8 9.7 0.00 0.00 0.00 67 1011.6
20260508135003 10 259 4.8 8.0 0.00 0.00 0.00 70 1011.7
20260508134508 10 186 4.8 8.0 0.00 0.00 0.00 70 1011.7
20260508134006 10 204 3.2 6.4 0.00 0.00 0.00 71 1011.7
20260508133502 10 161 3.2 6.4 0.00 0.00 0.00 74 1011.7
20260508133008 9 140 1.6 8.0 0.00 0.00 0.00 78 1011.7
20260508132502 8 178 4.8 8.0 0.00 0.00 0.00 79 1011.7
20260508132006 8 192 0.0 4.8 0.00 0.00 0.00 81 1011.8
20260508131516 8 155 3.2 4.8 0.00 0.00 0.00 85 1011.9
20260508131005 7 174 0.0 3.2 0.00 0.00 0.00 85 1011.8
20260508130506 7 209 1.6 3.2 0.00 0.00 0.00 88 1011.8
20260508130020 6 173 0.0 4.8 0.00 0.00 0.00 90 1011.7
20260508125503 6 171 0.0 6.4 0.00 0.00 0.00 92 1011.9
20260508125007 5 160 3.2 6.4 0.00 0.00 0.00 93 1011.9
20260508124509 5 202 0.0 4.8 0.00 0.00 0.00 95 1011.9
20260508124002 4 161 3.2 4.8 0.00 0.00 0.00 97 1011.9
20260508123502 3 217 1.6 3.2 0.00 0.00 0.00 97 1011.9
20260508123009 3 190 0.0 3.2 0.00 0.00 0.00 97 1011.8
20260508122505 2 136 0.0 1.6 0.00 0.00 0.00 96 1011.8
20260508122003 2 35 0.0 0.0 0.00 0.00 0.00 96 1011.7
20260508121517 2 35 0.0 0.0 0.00 0.00 0.00 96 1011.6
20260508121008 2 35 0.0 0.0 0.00 0.00 0.00 97 1011.5
20260508120506 1 35 0.0 3.2 0.00 0.00 0.00 96 1011.6
20260508120017 1 35 0.0 3.2 0.00 0.00 0.00 96 1011.5
20260508115508 1 35 0.0 0.0 0.00 0.00 0.00 96 1011.4
20260508115006 1 35 0.0 0.0 0.00 0.00 0.00 96 1011.4
20260508114530 0 35 0.0 0.0 0.00 0.00 0.00 95 1011.4
20260508114006 0 35 0.0 0.0 0.00 0.00 0.00 95 1011.3
20260508113506 0 35 0.0 0.0 0.00 0.00 0.00 95 1011.3
20260508113023 0 35 0.0 1.6 0.00 0.00 0.00 95 1011.3
20260508112503 0 35 0.0 1.6 0.00 0.00 0.00 94 1011.3
20260508112003 0 35 0.0 0.0 0.00 0.00 0.00 95 1011.3
20260508111512 0 35 0.0 3.2 0.00 0.00 0.00 95 1011.3
20260508111007 0 35 0.0 3.2 0.00 0.00 0.00 95 1011.3
20260508110504 0 35 0.0 3.2 0.00 0.00 0.00 95 1011.3
20260508110013 0 35 0.0 0.0 0.00 0.00 0.00 94 1011.2
20260508105506 0 35 0.0 0.0 0.00 0.00 0.00 94 1011.2
20260508105003 0 35 0.0 0.0 0.00 0.00 0.00 94 1011.1
20260508104516 0 35 0.0 0.0 0.00 0.00 0.00 94 1011.0
20260508104006 0 35 0.0 0.0 0.00 0.00 0.00 94 1011.0
20260508103509 0 35 0.0 0.0 0.00 0.00 0.00 94 1010.9
20260508103016 0 35 0.0 0.0 0.00 0.00 0.00 94 1010.9
20260508102508 0 35 0.0 0.0 0.00 0.00 0.00 94 1010.9
20260508102011 0 35 0.0 0.0 0.00 0.00 0.00 94 1010.9
20260508101531 0 35 0.0 0.0 0.00 0.00 0.00 94 1010.9
20260508101008 0 35 0.0 0.0 0.00 0.00 0.00 93 1010.9
20260508100503 0 35 0.0 0.0 0.00 0.00 0.00 93 1011.0
20260508100014 0 35 0.0 0.0 0.00 0.00 0.00 93 1010.9
20260508095508 0 35 0.0 0.0 0.00 0.00 0.00 93 1011.0
20260508095004 0 35 0.0 0.0 0.00 0.00 0.00 93 1011.0
20260508094515 0 35 0.0 0.0 0.00 0.00 0.00 93 1011.1
20260508094007 0 35 0.0 1.6 0.00 0.00 0.00 93 1011.1
20260508093507 0 35 0.0 1.6 0.00 0.00 0.00 93 1011.2
20260508093021 0 35 0.0 0.0 0.00 0.00 0.00 93 1011.2
20260508092507 0 35 0.0 0.0 0.00 0.00 0.00 93 1011.2
20260508092004 0 35 0.0 0.0 0.00 0.00 0.00 93 1011.1
20260508091518 0 35 0.0 3.2 0.00 0.00 0.00 93 1011.2
20260508091010 0 35 0.0 3.2 0.00 0.00 0.00 93 1011.2
20260508090512 0 35 0.0 0.0 0.00 0.00 0.00 93 1011.2
20260508090033 0 35 0.0 0.0 0.00 0.00 0.00 93 1011.2
20260508085510 0 35 0.0 0.0 0.00 0.00 0.00 93 1011.2
20260508085010 0 35 0.0 0.0 0.00 0.00 0.00 93 1011.2
20260508084527 0 35 0.0 0.0 0.00 0.00 0.00 93 1011.2
20260508084008 1 35 0.0 0.0 0.00 0.00 0.00 93 1011.2
20260508083509 1 35 0.0 3.2 0.00 0.00 0.00 93 1011.3
20260508083036 1 35 0.0 3.2 0.00 0.00 0.00 93 1011.2
20260508082517 1 35 0.0 3.2 0.00 0.00 0.00 92 1011.3
20260508082010 1 35 0.0 3.2 0.00 0.00 0.00 92 1011.3
20260508081528 1 35 1.6 3.2 0.00 0.00 0.00 92 1011.3
20260508081008 1 35 1.6 3.2 0.00 0.00 0.00 92 1011.3
20260508080507 1 35 0.0 3.2 0.00 0.00 0.00 92 1011.4
20260508080029 1 35 0.0 1.6 0.00 0.00 0.00 92 1011.3
20260508075509 1 35 1.6 1.6 0.00 0.00 0.00 91 1011.4
20260508075011 1 35 0.0 1.6 0.00 0.00 0.00 91 1011.4
20260508074527 1 35 0.0 0.0 0.00 0.00 0.00 91 1011.4
20260508074011 1 35 0.0 0.0 0.00 0.00 0.00 91 1011.5
20260508073509 1 35 0.0 0.0 0.00 0.00 0.00 91 1011.5
20260508073028 1 35 0.0 1.6 0.00 0.00 0.00 91 1011.6
20260508072512 1 35 0.0 3.2 0.00 0.00 0.00 91 1011.6
20260508072011 2 35 1.6 3.2 0.00 0.00 0.00 91 1011.7
20260508071528 2 35 0.0 0.0 0.00 0.00 0.00 91 1011.7
20260508071010 2 35 0.0 0.0 0.00 0.00 0.00 91 1011.7
20260508070511 2 35 0.0 0.0 0.00 0.00 0.00 91 1011.7
20260508070028 2 35 0.0 0.0 0.00 0.00 0.00 91 1011.8
20260508065509 2 35 0.0 1.6 0.00 0.00 0.00 91 1011.9
20260508065010 2 35 0.0 1.6 0.00 0.00 0.00 91 1011.8
20260508064551 2 35 1.6 3.2 0.00 0.00 0.00 91 1011.9
20260508064010 2 35 0.0 3.2 0.00 0.00 0.00 91 1011.9
20260508063511 2 35 0.0 3.2 0.00 0.00 0.00 90 1011.9
20260508063029 2 35 1.6 3.2 0.00 0.00 0.00 90 1012.0
20260508062514 2 35 0.0 3.2 0.00 0.00 0.00 89 1011.9
20260508062013 2 35 0.0 0.0 0.00 0.00 0.00 89 1011.9
20260508061528 2 35 0.0 3.2 0.00 0.00 0.00 89 1011.9
20260508061011 2 35 0.0 3.2 0.00 0.00 0.00 89 1011.9
20260508060505 2 35 0.0 1.6 0.00 0.00 0.00 89 1011.9
20260508060003 2 35 0.0 0.0 0.00 0.00 0.00 89 1012.0
20260508055502 2 35 0.0 3.2 0.00 0.00 0.00 88 1012.1
20260508055002 2 35 0.0 3.2 0.00 0.00 0.00 88 1012.1
20260508054504 2 35 0.0 1.6 0.00 0.00 0.00 88 1012.1
20260508054004 2 35 1.6 1.6 0.00 0.00 0.00 88 1012.1